Location: Bee Sting Hill Observatory
(34.8650°N, 84.3356°W)
Time: 05:52:14
(UTC-04:00)

ISS - Visible Passes

Search period start: 21 September 2018 00:00
Search period end: 01 October 2018 00:00
Orbit: 403 x 408 km, 51.6° (Epoch: 21 September)

Date Brightness Start Highest point End Pass type
(mag) Time Alt. Az. Time Alt. Az. Time Alt. Az.
21 Sep -2.3 21:25:42 10° WSW 21:28:45 34° NW 21:28:48 34° NW visible
22 Sep -3.6 20:33:35 10° SW 20:36:51 70° NW 20:39:44 13° NE visible
23 Sep -1.1 21:19:33 10° WNW 21:21:45 16° NNW 21:23:10 13° N visible
24 Sep -1.8 20:26:50 10° W 20:29:42 27° NW 20:32:34 10° NNE visible
26 Sep -1.0 20:20:51 10° WNW 20:22:40 14° NNW 20:24:29 10° N visible
